This is the latest recevied weather packets stored in our database for station/object LZ1HCO-25. If no packets are shown the sender has not sent any weather packets the latest 1 day(s).
| Time | Temp. | Humidity | Pressure | Rain* | Wind** | Luminosity | Snow |
|---|---|---|---|---|---|---|---|
| 1778078110 | 25.56° C | 50% | 966 hPa | - | - | 0 W/m² | - |
| 1778077176 | 25° C | 52% | 966 hPa | - | - | 0 W/m² | - |
| 1778076242 | 23.89° C | 53% | 966 hPa | - | - | 0 W/m² | - |
| 1778075308 | 24.44° C | 54% | 966 hPa | - | - | 0 W/m² | - |
| 1778074685 | 24.44° C | 55% | 966 hPa | - | - | 0 W/m² | - |
| 1778073751 | 26.11° C | 53% | 966 hPa | - | - | 0 W/m² | - |
| 1778072987 | 25° C | 51% | 966 hPa | - | - | 0 W/m² | - |
| 1778072053 | 26.67° C | 48% | 966 hPa | - | - | 0 W/m² | - |
| 1778071119 | 26.67° C | 46% | 966 hPa | - | - | 0 W/m² | - |
| 1778070496 | 26.11° C | 47% | 966 hPa | - | - | 0 W/m² | - |
| 1778070185 | 26.67° C | 45% | 966 hPa | - | - | 0 W/m² | - |
| 1778069251 | 27.22° C | 48% | 966 hPa | - | - | 0 W/m² | - |
| 1778068628 | 27.22° C | 45% | 967 hPa | - | - | 0 W/m² | - |
| 1778067694 | 26.67° C | 47% | 967 hPa | - | - | 0 W/m² | - |
| 1778066760 | 26.67° C | 47% | 967 hPa | - | - | 0 W/m² | - |
| 1778066137 | 27.78° C | 45% | 967 hPa | - | - | 0 W/m² | - |
| 1778065826 | 27.22° C | 45% | 967 hPa | - | - | 0 W/m² | - |
| 1778064269 | 27.22° C | 39% | 967 hPa | - | - | 0 W/m² | - |
| 1778063335 | 26.11° C | 40% | 967 hPa | - | - | 0 W/m² | - |
| 1778062712 | 26.11° C | 40% | 967 hPa | - | - | 0 W/m² | - |
| 1778061778 | 28.33° C | 42% | 967 hPa | - | - | 0 W/m² | - |
| 1778061155 | 27.22° C | 38% | 967 hPa | - | - | 0 W/m² | - |
| 1778060844 | 26.67° C | 38% | 967 hPa | - | - | 0 W/m² | - |
| 1778060221 | 26.67° C | 36% | 967 hPa | - | - | 0 W/m² | - |
| 1778059910 | 28.33° C | 38% | 967 hPa | - | - | 0 W/m² | - |
* Rain since midnight (hover to see other rain measurements)
** Current wind speed in m/s (hover to see current wind gust speed)